Location: Walnut Point State Park
(39.6958°N, 88.0345°W)
Time: 09:29:12
(UTC-05:00)

Cosmos 1833 Rocket - Visible Passes

Search period start: 25 April 2015 00:00
Search period end: 05 May 2015 00:00
Orbit: 834 x 839 km, 71.0° (Epoch: 24 April)

Date Brightness Start Highest point End Pass type
(mag) Time Alt. Az. Time Alt. Az. Time Alt. Az.
25 Apr 3.7 20:20:29 10° N 20:25:19 29° ENE 20:29:45 12° ESE visible
25 Apr 3.7 22:04:11 10° NW 22:09:22 39° WSW 22:11:28 28° SSW visible
26 Apr 3.8 20:03:55 10° N 20:08:38 27° NE 20:13:26 10° ESE visible
26 Apr 3.6 21:47:28 10° NW 21:52:46 42° WSW 21:55:42 23° SSW visible
27 Apr 3.5 21:30:47 10° NW 21:36:09 46° WSW 21:40:00 18° S visible
28 Apr 3.4 21:14:06 10° NNW 21:19:32 50° WSW 21:24:22 13° S visible
29 Apr 3.3 20:57:26 10° NNW 21:02:55 55° WSW 21:08:23 10° S visible
30 Apr 3.2 20:40:46 10° NNW 20:46:18 60° WSW 20:51:49 10° S visible
01 May 3.1 20:24:06 10° NNW 20:29:41 66° WSW 20:35:14 10° S visible
02 May 3.0 20:07:26 10° NNW 20:13:04 72° WSW 20:18:39 10° SSE visible
